CW6617 Weather Reports


Display with metric or nautical units.
time (UTC)temp
F
wind
direction
speed
MPH
gust
MPH
rain 1hr
in
rain 24hr
in
rain mn
in
humidity
%
barometer
mb
20210421071709 48 51 7.0 13.0 0.00 0.00 0.00 85 1019.6
20210421071208 48 69 4.0 12.0 0.00 0.00 0.00 86 1019.6
20210421064708 47 59 5.0 8.0 0.00 0.00 0.00 88 1019.4
20210421064213 47 98 2.0 9.0 0.00 0.00 0.00 89 1019.3
20210421063717 47 70 3.0 7.0 0.00 0.00 0.00 89 1019.3
20210421063222 46 58 4.0 7.0 0.00 0.00 0.00 90 1019.2
20210421061707 46 60 0.0 2.0 0.00 0.00 0.00 90 1019.1
20210421061208 46 57 3.0 6.0 0.00 0.00 0.00 90 1019.1
20210421060707 46 60 2.0 6.0 0.00 0.00 0.00 90 1019.1
20210421054709 45 54 0.0 1.0 0.00 0.00 0.00 91 1018.9
20210421054205 45 61 0.0 0.0 0.00 0.00 0.00 91 1018.9
20210421053707 45 72 0.0 0.0 0.00 0.00 0.00 91 1018.9
20210421053209 45 58 0.0 3.0 0.00 0.00 0.00 91 1018.7
20210421051706 44 70 2.0 6.0 0.00 0.00 0.00 92 1018.7
20210421051206 43 51 3.0 6.0 0.00 0.00 0.00 92 1018.6
20210421050713 42 49 1.0 3.0 0.00 0.00 0.00 90 1018.6
20210421050207 42 53 2.0 3.0 0.00 0.00 0.00 89 1018.6
20210421044708 42 66 0.0 1.0 0.00 0.00 0.00 89 1018.5
20210421044211 42 68 1.0 3.0 0.00 0.00 0.00 89 1018.4
20210421043705 42 132 0.0 0.0 0.00 0.00 0.00 88 1018.4
20210421043217 42 133 0.0 0.0 0.00 0.00 0.00 88 1018.4
20210421041706 42 165 0.0 0.0 0.00 0.00 0.00 88 1018.4
20210421041214 42 165 0.0 0.0 0.00 0.00 0.00 88 1018.3
20210421040706 42 171 0.0 0.0 0.00 0.00 0.00 88 1018.3
20210421040207 42 171 0.0 0.0 0.00 0.00 0.00 88 1018.3
20210421034707 42 171 0.0 0.0 0.00 0.00 0.00 88 1018.4
20210421034209 42 171 0.0 0.0 0.00 0.00 0.00 88 1018.3
20210421033706 42 171 0.0 0.0 0.00 0.00 0.00 88 1018.4
20210421033207 42 171 0.0 0.0 0.00 0.00 0.00 88 1018.4
20210421031707 42 171 0.0 0.0 0.00 0.00 0.00 88 1018.4
20210421031208 42 171 0.0 0.0 0.00 0.00 0.00 88 1018.3
20210421030705 42 171 0.0 0.0 0.00 0.00 0.00 88 1018.4
20210421030208 42 171 0.0 0.0 0.00 0.00 0.00 87 1018.4
20210421024715 42 171 0.0 0.0 0.00 0.00 0.00 87 1018.4
20210421024208 42 171 0.0 0.0 0.00 0.00 0.00 88 1018.4
20210421023708 42 171 0.0 0.0 0.00 0.00 0.00 87 1018.4
20210421023207 42 171 0.0 0.0 0.00 0.00 0.00 87 1018.3
20210421021706 42 171 0.0 0.0 0.00 0.00 0.00 86 1018.3
20210421021208 42 171 0.0 0.0 0.00 0.00 0.00 86 1018.2
20210421020710 42 171 0.0 0.0 0.00 0.00 0.00 86 1018.3
20210421020206 42 171 0.0 0.0 0.00 0.00 0.00 86 1018.2
20210421014709 42 171 0.0 0.0 0.00 0.00 0.00 86 1018.0
20210421014211 42 171 0.0 0.0 0.00 0.00 0.00 86 1018.0
20210421013706 42 171 0.0 0.0 0.00 0.00 0.00 86 1018.0
20210421013206 42 171 0.0 0.0 0.00 0.00 0.00 85 1018.1
20210421011707 42 171 0.0 0.0 0.00 0.00 0.00 85 1018.1
20210421011206 42 171 0.0 0.0 0.00 0.00 0.00 85 1018.0
20210421010706 42 171 0.0 0.0 0.00 0.00 0.00 85 1018.0
20210421010207 42 171 0.0 0.0 0.00 0.00 0.00 85 1018.0
20210421004710 43 171 0.0 0.0 0.00 0.00 0.00 84 1018.0
20210421004207 43 171 0.0 0.0 0.00 0.00 0.00 84 1018.1
20210421003706 43 171 0.0 0.0 0.00 0.00 0.00 85 1018.1
20210421003208 43 171 0.0 0.0 0.00 0.00 0.00 85 1018.1
20210421001706 44 171 0.0 0.0 0.00 0.00 0.00 84 1018.2
20210421001205 44 171 0.0 0.0 0.00 0.00 0.00 85 1018.2
20210421000709 44 171 0.0 0.0 0.00 0.00 0.00 85 1018.2
20210421000208 44 171 0.0 0.0 0.00 0.00 0.00 85 1018.1
20210420234706 45 171 0.0 0.0 0.00 0.00 0.00 83 1018.2
20210420234209 45 171 0.0 0.0 0.00 0.00 0.00 83 1018.1
20210420233707 45 171 0.0 0.0 0.00 0.00 0.00 84 1018.0
20210420233208 45 171 0.0 0.0 0.00 0.00 0.00 84 1018.1
20210420231714 45 171 0.0 0.0 0.00 0.00 0.00 82 1018.2
20210420231207 45 171 0.0 0.0 0.00 0.00 0.00 81 1018.2
20210420230708 46 171 0.0 0.0 0.00 0.00 0.00 81 1018.2
20210420230207 46 171 0.0 0.0 0.00 0.00 0.00 81 1018.2
20210420224716 46 171 0.0 0.0 0.00 0.00 0.00 82 1018.1
20210420224206 46 171 0.0 0.0 0.00 0.00 0.00 81 1018.1
20210420223708 47 171 0.0 0.0 0.00 0.00 0.00 80 1018.1
20210420223208 47 171 0.0 0.0 0.00 0.00 0.00 80 1018.0
20210420221711 47 171 0.0 0.0 0.00 0.00 0.00 79 1018.0
20210420221208 48 171 0.0 0.0 0.00 0.00 0.00 79 1017.9
20210420220707 48 171 0.0 0.0 0.00 0.00 0.00 79 1017.8
20210420220206 48 171 0.0 0.0 0.00 0.00 0.00 79 1017.9
20210420214706 48 171 0.0 0.0 0.00 0.00 0.00 77 1017.8
20210420214206 49 171 0.0 0.0 0.00 0.00 0.00 76 1017.8
20210420213707 49 171 0.0 0.0 0.00 0.00 0.00 75 1017.8
20210420213215 49 171 0.0 0.0 0.00 0.00 0.00 74 1017.8
20210420211708 51 171 0.0 0.0 0.00 0.00 0.00 74 1017.7
20210420211213 51 171 0.0 0.0 0.00 0.00 0.00 74 1017.8
20210420210706 51 171 0.0 1.0 0.00 0.00 0.00 74 1017.7
20210420210206 51 171 0.0 1.0 0.00 0.00 0.00 73 1017.8
20210420204706 52 171 0.0 0.0 0.00 0.00 0.00 73 1017.8
20210420204206 52 152 1.0 2.0 0.00 0.00 0.00 72 1017.7
20210420203709 52 152 1.0 3.0 0.00 0.00 0.00 72 1017.7
20210420203208 52 134 0.0 0.0 0.00 0.00 0.00 71 1017.7
20210420201706 53 108 0.0 5.0 0.00 0.00 0.00 70 1017.6
20210420201206 53 107 2.0 5.0 0.00 0.00 0.00 70 1017.5
20210420200705 54 89 2.0 3.0 0.00 0.00 0.00 69 1017.5
20210420200205 54 95 1.0 2.0 0.00 0.00 0.00 69 1017.5
20210420194706 55 102 2.0 3.0 0.00 0.00 0.00 67 1017.3
20210420194206 55 96 1.0 3.0 0.00 0.00 0.00 67 1017.3
20210420193707 55 88 1.0 3.0 0.00 0.00 0.00 67 1017.3
20210420193209 55 86 3.0 7.0 0.00 0.00 0.00 67 1017.4
20210420191707 56 100 2.0 7.0 0.00 0.00 0.00 65 1017.2
20210420191206 56 87 2.0 7.0 0.00 0.00 0.00 65 1017.1
20210420190706 57 92 1.0 3.0 0.00 0.00 0.00 64 1017.1
20210420190209 57 65 3.0 7.0 0.00 0.00 0.00 64 1017.1
20210420184706 57 95 3.0 5.0 0.00 0.00 0.00 61 1017.0
20210420184206 58 93 6.0 10.0 0.00 0.00 0.00 60 1017.0
20210420183707 58 76 2.0 8.0 0.00 0.00 0.00 58 1016.9
20210420183206 58 67 2.0 7.0 0.00 0.00 0.00 56 1016.8
20210420181707 59 91 0.0 2.0 0.00 0.00 0.00 55 1016.7
20210420181205 59 55 1.0 3.0 0.00 0.00 0.00 55 1016.7
20210420180707 59 62 1.0 3.0 0.00 0.00 0.00 54 1016.7
20210420180206 59 74 1.0 5.0 0.00 0.00 0.00 53 1016.6
20210420174707 60 73 3.0 6.0 0.00 0.00 0.00 52 1016.6
20210420174212 60 71 3.0 7.0 0.00 0.00 0.00 51 1016.6
20210420173706 60 57 2.0 5.0 0.00 0.00 0.00 51 1016.6
20210420173208 60 51 2.0 6.0 0.00 0.00 0.00 52 1016.6
20210420171708 60 64 2.0 9.0 0.00 0.00 0.00 51 1016.5
20210420171218 60 57 4.0 7.0 0.00 0.00 0.00 50 1016.6
20210420170705 60 62 1.0 5.0 0.00 0.00 0.00 50 1016.5
20210420170417 61 100 2.0 5.0 0.00 0.00 0.00 51 1016.6
20210420164757 61 92 2.0 5.0 0.00 0.00 0.00 49 1016.5
20210420164216 61 107 2.0 6.0 0.00 0.00 0.00 50 1016.5
20210420163707 61 47 3.0 8.0 0.00 0.00 0.00 48 1016.5
20210420163218 61 65 3.0 10.0 0.00 0.00 0.00 48 1016.5
20210420161721 63 47 5.0 10.0 0.00 0.00 0.00 45 1016.4
20210420161206 63 52 5.0 10.0 0.00 0.00 0.00 44 1016.4
20210420160715 64 41 5.0 10.0 0.00 0.00 0.00 45 1016.3
20210420160209 63 85 4.0 9.0 0.00 0.00 0.00 46 1016.3
20210420154707 63 174 2.0 3.0 0.00 0.00 0.00 44 1016.2
20210420154207 62 83 0.0 3.0 0.00 0.00 0.00 44 1016.2
20210420153709 62 95 3.0 10.0 0.00 0.00 0.00 44 1016.3
20210420153205 63 117 4.0 10.0 0.00 0.00 0.00 42 1016.2
20210420151706 62 112 3.0 5.0 0.00 0.00 0.00 45 1016.3
20210420151209 62 91 2.0 7.0 0.00 0.00 0.00 45 1016.3
20210420150706 62 45 4.0 8.0 0.00 0.00 0.00 45 1016.3
20210420150206 62 59 3.0 5.0 0.00 0.00 0.00 45 1016.3
20210420144717 63 313 1.0 2.0 0.00 0.00 0.00 45 1016.4
20210420144211 63 56 1.0 3.0 0.00 0.00 0.00 43 1016.3
20210420143707 63 70 2.0 5.0 0.00 0.00 0.00 42 1016.3
20210420143205 64 66 3.0 7.0 0.00 0.00 0.00 43 1016.4
20210420141712 66 265 1.0 7.0 0.00 0.00 0.00 40 1016.6
20210420141206 66 153 2.0 7.0 0.00 0.00 0.00 40 1016.4
20210420140711 65 51 5.0 10.0 0.00 0.00 0.00 40 1016.4
20210420140303 64 46 0.0 7.0 0.00 0.00 0.00 40 1016.5
20210420134708 62 114 3.0 7.0 0.00 0.00 0.00 45 1016.7
20210420134208 62 17 3.0 10.0 0.00 0.00 0.00 44 1016.8
20210420133709 64 68 4.0 10.0 0.00 0.00 0.00 42 1016.8
20210420133205 65 36 5.0 12.0 0.00 0.00 0.00 41 1016.8
20210420131706 61 37 2.0 8.0 0.00 0.00 0.00 49 1017.0
20210420131207 61 72 4.0 7.0 0.00 0.00 0.00 49 1017.1
20210420130705 61 59 3.0 9.0 0.00 0.00 0.00 49 1017.1
20210420130209 61 84 5.0 12.0 0.00 0.00 0.00 48 1017.0
20210420124707 61 33 3.0 7.0 0.00 0.00 0.00 50 1017.1
20210420124208 62 51 5.0 10.0 0.00 0.00 0.00 49 1017.1
20210420123706 63 345 3.0 9.0 0.00 0.00 0.00 48 1017.2
20210420123208 63 357 5.0 12.0 0.00 0.00 0.00 49 1017.1
20210420121825 61 47 2.0 8.0 0.00 0.00 0.00 51 1017.1
20210420121210 60 301 2.0 5.0 0.00 0.00 0.00 51 1017.3
20210420120708 61 316 5.0 8.0 0.00 0.00 0.00 52 1017.2
20210420120206 62 40 4.0 9.0 0.00 0.00 0.00 50 1017.3
20210420114713 61 65 2.0 9.0 0.00 0.00 0.00 52 1017.4
20210420114206 62 87 3.0 7.0 0.00 0.00 0.00 51 1017.4
20210420113705 62 44 5.0 12.0 0.00 0.00 0.00 50 1017.4
20210420113209 63 297 2.0 10.0 0.00 0.00 0.00 53 1017.4
20210420111705 63 301 2.0 5.0 0.00 0.00 0.00 53 1017.6
20210420111206 62 310 3.0 7.0 0.00 0.00 0.00 53 1017.6
20210420110706 61 73 5.0 12.0 0.00 0.00 0.00 53 1017.7
20210420110207 61 46 6.0 10.0 0.00 0.00 0.00 52 1017.6
20210420104711 61 328 4.0 6.0 0.00 0.00 0.00 53 1017.7
20210420104212 61 17 3.0 9.0 0.00 0.00 0.00 53 1017.8
20210420103706 61 330 3.0 9.0 0.00 0.00 0.00 54 1017.8
20210420103207 61 57 5.0 12.0 0.00 0.00 0.00 54 1017.8
20210420101706 60 60 4.0 8.0 0.00 0.00 0.00 55 1017.8
20210420101205 60 111 4.0 9.0 0.00 0.00 0.00 56 1018.0
20210420100705 59 58 6.0 10.0 0.00 0.00 0.00 55 1018.0
20210420100205 59 51 4.0 13.0 0.00 0.00 0.00 56 1018.0
20210420094707 59 90 3.0 9.0 0.00 0.00 0.00 57 1018.0
20210420094207 59 41 3.0 7.0 0.00 0.00 0.00 57 1017.9
20210420093708 60 40 3.0 8.0 0.00 0.00 0.00 57 1018.1
20210420093206 59 96 5.0 9.0 0.00 0.00 0.00 57 1018.1
20210420091706 57 306 2.0 5.0 0.00 0.00 0.00 62 1018.1
20210420091206 57 89 1.0 3.0 0.00 0.00 0.00 63 1018.0
20210420090706 57 293 1.0 3.0 0.00 0.00 0.00 63 1018.1
20210420090207 56 246 2.0 5.0 0.00 0.00 0.00 63 1018.2
20210420084713 54 71 0.0 0.0 0.00 0.00 0.00 67 1018.2
20210420084205 53 23 0.0 0.0 0.00 0.00 0.00 68 1018.2
20210420083707 53 192 0.0 0.0 0.00 0.00 0.00 69 1018.1
20210420083206 52 197 0.0 0.0 0.00 0.00 0.00 70 1018.2
20210420081711 50 245 0.0 0.0 0.00 0.00 0.00 74 1018.2
20210420081206 49 253 0.0 0.0 0.00 0.00 0.00 75 1018.3
20210420080706 48 257 0.0 0.0 0.00 0.00 0.00 76 1018.3
20210420080206 47 262 0.0 0.0 0.00 0.00 0.00 77 1018.3
20210420074706 45 255 0.0 0.0 0.00 0.00 0.00 80 1018.4
20210420074206 44 255 0.0 0.0 0.00 0.00 0.00 80 1018.5
20210420073706 43 255 0.0 0.0 0.00 0.00 0.00 81 1018.3
20210420073206 43 255 0.0 0.0 0.00 0.00 0.00 82 1018.3